TimeCDT,TemperatureF,Dew PointF,Humidity,Sea Level PressureIn,VisibilityMPH,Wind Direction,Wind SpeedMPH,Gust SpeedMPH,PrecipitationIn,Events,Conditions,WindDirDegrees,DateUTC
12:15 AM,54.5,53.6,97,30.14,3.0,NNE,4.6,-,N/A,,Overcast,20,2013-09-16 05:15:00
12:35 AM,54.9,54.1,97,30.15,4.0,NE,4.6,-,N/A,,Overcast,50,2013-09-16 05:35:00
12:55 AM,54.7,54.1,98,30.15,3.0,NE,4.6,-,N/A,,Overcast,40,2013-09-16 05:55:00
1:15 AM,54.7,54.0,97,30.16,3.0,NNE,5.8,-,N/A,,Overcast,30,2013-09-16 06:15:00
1:35 AM,54.9,54.1,97,30.17,4.0,NE,4.6,-,N/A,,Overcast,40,2013-09-16 06:35:00
1:55 AM,54.7,54.1,98,30.17,4.0,NE,4.6,-,N/A,,Mostly Cloudy,40,2013-09-16 06:55:00
2:15 AM,53.8,53.1,97,30.18,2.0,NNE,5.8,-,N/A,,Overcast,20,2013-09-16 07:15:00
2:35 AM,52.9,52.2,97,30.18,2.5,NNE,4.6,-,N/A,,Mostly Cloudy,30,2013-09-16 07:35:00
2:55 AM,53.6,52.9,97,30.18,3.0,NE,4.6,-,N/A,,Mostly Cloudy,40,2013-09-16 07:55:00
3:15 AM,52.9,52.2,97,30.18,3.0,NE,3.5,-,N/A,,Scattered Clouds,50,2013-09-16 08:15:00
3:35 AM,52.0,51.3,97,30.19,1.2,Calm,Calm,-,N/A,,Unknown,0,2013-09-16 08:35:00
3:55 AM,50.0,49.3,97,30.20,0.2,North,4.6,-,N/A,,Unknown,350,2013-09-16 08:55:00
4:15 AM,48.6,47.7,97,30.20,0.2,Calm,Calm,-,N/A,,Overcast,0,2013-09-16 09:15:00
4:35 AM,48.7,48.0,97,30.21,0.2,NNE,3.5,-,N/A,,Overcast,20,2013-09-16 09:35:00
4:55 AM,49.3,48.6,97,30.21,0.2,Calm,Calm,-,N/A,,Overcast,0,2013-09-16 09:55:00
5:15 AM,48.7,48.0,97,30.22,0.2,ENE,3.5,-,N/A,,Mostly Cloudy,60,2013-09-16 10:15:00
5:35 AM,49.8,49.1,97,30.23,4.0,NE,4.6,-,N/A,,Clear,50,2013-09-16 10:35:00
5:55 AM,50.5,49.8,97,30.23,5.0,NE,6.9,-,N/A,,Clear,50,2013-09-16 10:55:00
6:15 AM,50.4,49.6,97,30.24,4.0,North,3.5,-,N/A,,Clear,360,2013-09-16 11:15:00
6:35 AM,48.2,47.7,98,30.25,1.2,Calm,Calm,-,N/A,,Unknown,0,2013-09-16 11:35:00
6:55 AM,48.2,47.7,98,30.26,0.5,North,3.5,-,N/A,,Unknown,10,2013-09-16 11:55:00
7:15 AM,48.2,47.5,97,30.26,1.0,North,3.5,-,N/A,,Unknown,10,2013-09-16 12:15:00
7:35 AM,50.4,49.6,97,30.27,4.0,Calm,Calm,-,N/A,,Clear,0,2013-09-16 12:35:00
7:55 AM,52.2,51.4,97,30.28,7.0,NNE,4.6,-,N/A,,Clear,30,2013-09-16 12:55:00
8:15 AM,53.1,52.3,97,30.28,10.0,North,5.8,-,N/A,,Mostly Cloudy,10,2013-09-16 13:15:00
8:35 AM,54.0,53.4,98,30.29,10.0,NNE,6.9,-,N/A,,Overcast,30,2013-09-16 13:35:00
8:55 AM,54.3,53.8,98,30.30,10.0,NNE,6.9,-,N/A,,Overcast,20,2013-09-16 13:55:00
9:15 AM,54.9,54.3,98,30.31,10.0,NNE,6.9,-,N/A,,Overcast,30,2013-09-16 14:15:00
9:35 AM,55.9,54.9,96,30.32,10.0,NE,8.1,-,N/A,,Overcast,40,2013-09-16 14:35:00
9:55 AM,57.2,54.5,91,30.32,10.0,NNE,9.2,-,N/A,,Overcast,30,2013-09-16 14:55:00
10:15 AM,57.7,54.5,89,30.33,10.0,NNE,8.1,-,N/A,,Overcast,30,2013-09-16 15:15:00
10:35 AM,58.5,54.5,87,30.33,10.0,NNE,9.2,-,N/A,,Overcast,20,2013-09-16 15:35:00
10:55 AM,58.8,53.8,83,30.33,10.0,North,8.1,-,N/A,,Overcast,360,2013-09-16 15:55:00
11:15 AM,59.2,52.7,79,30.33,10.0,NNE,3.5,-,N/A,,Overcast,30,2013-09-16 16:15:00
11:35 AM,59.9,53.1,78,30.33,10.0,NNW,4.6,-,N/A,,Overcast,330,2013-09-16 16:35:00
11:55 AM,60.6,53.2,77,30.33,10.0,North,4.6,-,N/A,,Overcast,350,2013-09-16 16:55:00
12:15 PM,61.2,53.1,75,30.33,10.0,NNW,4.6,-,N/A,,Mostly Cloudy,330,2013-09-16 17:15:00
12:35 PM,62.2,52.0,69,30.33,10.0,NNW,4.6,-,N/A,,Mostly Cloudy,340,2013-09-16 17:35:00
12:55 PM,63.1,51.6,66,30.33,10.0,NNE,5.8,-,N/A,,Overcast,20,2013-09-16 17:55:00
1:15 PM,63.9,50.5,62,30.32,10.0,North,10.4,-,N/A,,Mostly Cloudy,10,2013-09-16 18:15:00
1:35 PM,65.1,49.8,58,30.32,10.0,Calm,Calm,-,N/A,,Mostly Cloudy,0,2013-09-16 18:35:00
1:55 PM,65.8,48.9,54,30.32,10.0,NNE,6.9,-,N/A,,Scattered Clouds,30,2013-09-16 18:55:00
2:15 PM,66.6,47.7,51,30.30,10.0,North,5.8,-,N/A,,Scattered Clouds,350,2013-09-16 19:15:00
2:35 PM,67.8,47.7,48,30.30,10.0,ENE,6.9,-,N/A,,Scattered Clouds,60,2013-09-16 19:35:00
2:55 PM,67.1,46.6,48,30.29,10.0,North,5.8,-,N/A,,Clear,360,2013-09-16 19:55:00
3:15 PM,68.2,46.8,46,30.28,10.0,North,9.2,-,N/A,,Scattered Clouds,10,2013-09-16 20:15:00
3:35 PM,68.2,46.8,46,30.28,10.0,NNW,8.1,-,N/A,,Scattered Clouds,340,2013-09-16 20:35:00
3:55 PM,68.5,46.0,44,30.28,10.0,NE,9.2,-,N/A,,Clear,50,2013-09-16 20:55:00
4:15 PM,68.7,46.0,44,30.28,10.0,NE,6.9,-,N/A,,Clear,40,2013-09-16 21:15:00
4:35 PM,68.4,45.3,44,30.28,10.0,Calm,Calm,-,N/A,,Clear,0,2013-09-16 21:35:00
4:55 PM,68.0,45.9,45,30.27,10.0,NNW,8.1,-,N/A,,Clear,340,2013-09-16 21:55:00
5:15 PM,66.9,48.9,52,30.28,10.0,North,10.4,-,N/A,,Clear,360,2013-09-16 22:15:00
5:35 PM,64.9,49.8,58,30.28,10.0,North,11.5,-,N/A,,Clear,10,2013-09-16 22:35:00
5:55 PM,63.5,49.3,60,30.28,10.0,North,11.5,-,N/A,,Clear,360,2013-09-16 22:55:00
6:15 PM,61.7,49.3,64,30.29,10.0,North,8.1,-,N/A,,Clear,360,2013-09-16 23:15:00
6:35 PM,59.7,49.3,68,30.29,10.0,North,6.9,-,N/A,,Clear,350,2013-09-16 23:35:00
6:55 PM,57.2,49.6,76,30.29,10.0,North,5.8,-,N/A,,Clear,360,2013-09-16 23:55:00
7:15 PM,54.9,50.5,85,30.29,10.0,North,6.9,-,N/A,,Clear,10,2013-09-17 00:15:00
7:35 PM,53.8,50.0,87,30.29,10.0,North,4.6,-,N/A,,Clear,10,2013-09-17 00:35:00
7:55 PM,51.4,48.9,91,30.29,10.0,North,5.8,-,N/A,,Clear,10,2013-09-17 00:55:00
8:15 PM,50.7,48.7,93,30.30,10.0,NNE,3.5,-,N/A,,Clear,20,2013-09-17 01:15:00
8:35 PM,50.0,48.2,94,30.30,10.0,NNE,3.5,-,N/A,,Clear,20,2013-09-17 01:35:00
8:55 PM,48.9,47.7,95,30.31,10.0,NNE,3.5,-,N/A,,Clear,30,2013-09-17 01:55:00
9:15 PM,48.7,47.7,96,30.31,10.0,NNE,3.5,-,N/A,,Clear,30,2013-09-17 02:15:00
9:35 PM,48.9,47.8,96,30.31,10.0,NE,4.6,-,N/A,,Clear,40,2013-09-17 02:35:00
9:55 PM,48.9,47.5,95,30.32,10.0,NNE,3.5,-,N/A,,Clear,30,2013-09-17 02:55:00
10:15 PM,47.1,45.9,95,30.32,10.0,NE,4.6,-,N/A,,Clear,50,2013-09-17 03:15:00
10:35 PM,48.2,46.6,94,30.33,10.0,ENE,4.6,-,N/A,,Clear,70,2013-09-17 03:35:00
10:55 PM,48.6,46.8,93,30.33,10.0,ENE,4.6,-,N/A,,Clear,70,2013-09-17 03:55:00
11:15 PM,48.2,46.2,93,30.33,10.0,East,3.5,-,N/A,,Clear,80,2013-09-17 04:15:00
11:35 PM,47.8,45.7,92,30.33,10.0,ENE,3.5,-,N/A,,Clear,70,2013-09-17 04:35:00
11:55 PM,47.7,45.5,92,30.33,10.0,ENE,3.5,-,N/A,,Clear,70,2013-09-17 04:55:00